CAPE
245 466 877 820 725 353 239 238 23 35 0 0 0 0 4 18 34 36 43 0 0 0 135 74 1 2 0 2 3 7 30 26 12 2 1 1 0 0 2 3 3 1 2
499 692 856 993 823 668 462 361 53 12 0 0 0 1 9 29 31 50 34 0 0 4 17 126 0 9 7 13 13 10 6 24 8 5 6 0 0 0 0 2 1 1 1
450 668 621 812 956 926 693 445 92 0 10 3 4 14 29 22 23 43 34 0 0 0 36 161 2 30 56 55 28 0 11 12 12 8 2 0 1 0 0 1 3 3 3
266 88 192 313 439 505 644 451 158 69 66 11 14 18 17 13 6 18 30 3 0 0 45 100 24 47 50 38 27 15 1 0 0 1 0 0 5 2 1 1 2 1 5
2 240 208 40 133 132 274 314 159 86 123 26 12 19 4 0 4 4 9 19 6 0 1 9 21 13 11 8 0 19 21 0 0 9 0 0 5 2 1 3 1 2 3
0 0 424 310 33 88 46 104 214 130 177 98 13 9 1 0 2 2 2 11 10 0 0 5 0 7 7 0 6 12 34 1 1 8 0 0 0 1 3 5 2 0 4
0 1 2 526 403 101 25 72 236 174 107 100 10 7 1 0 1 1 2 2 9 1 0 0 0 0 0 0 0 7 27 21 2 6 0 0 1 6 9 6 3 2 5
0 0 3 20 337 226 146 140 221 140 89 88 1 2 6 1 0 0 3 2 4 0 0 0 0 0 3 3 0 0 13 52 10 9 0 0 0 2 5 3 2 3 6
0 0 0 1 62 153 170 213 273 141 36 4 1 1 5 5 5 2 2 0 0 0 0 0 0 0 0 7 12 0 0 42 44 14 6 0 0 0 0 5 5 6 3
0 0 0 0 0 111 117 140 216 238 80 17 1 1 0 0 1 6 2 0 0 0 0 0 0 0 0 7 22 14 6 31 18 31 10 6 1 0 0 0 0 5 6
0 0 0 0 0 0 228 160 85 97 114 62 18 0 1 0 0 0 0 2 2 0 1 0 0 0 0 0 15 26 8 0 3 33 58 28 8 8 5 4 3 2 3
1 2 0 0 0 0 2 215 167 131 159 97 27 30 0 0 0 0 0 0 0 0 0 0 0 3 1 6 11 13 14 18 19 20 52 65 51 35 33 21 11 6 0
0 1 2 1 2 2 0 2 174 157 161 100 62 52 44 0 0 0 0 0 0 0 2 2 0 0 0 0 4 4 14 21 36 34 24 40 55 37 33 38 27 16 5
3 3 3 1 1 2 1 1 2 172 215 165 135 56 71 20 0 0 0 0 0 0 1 0 0 0 0 0 0 0 8 9 17 33 9 15 40 37 27 16 34 32 14
6 5 3 3 1 1 2 3 2 86 164 159 161 124 65 49 1 0 0 0 0 0 0 0 0 0 0 0 0 0 0 0 0 5 19 11 6 7 24 28 13 5 19
5 6 4 3 2 1 2 1 1 1 85 130 156 163 130 109 43 6 0 0 0 0 0 0 0 0 0 0 0 0 0 0 0 0 0 0 0 0 3 8 18 15 4
4 7 5 3 4 1 1 1 2 0 117 90 106 104 106 123 34 12 4 0 0 0 5 1 0 0 0 0 0 0 0 0 0 0 0 0 0 0 0 0 0 0 0
4 7 6 4 3 3 2 1 0 2 17 128 101 98 97 64 32 18 10 8 0 0 0 0 0 0 0 0 1 0 0 0 0 0 0 0 0 0 0 0 0 0 0
4 5 8 2 2 3 3 1 1 2 1 79 111 87 59 57 8 16 8 9 8 1 0 0 0 0 0 0 1 1 1 0 0 0 0 0 0 0 0 0 0 0 0
1 2 5 1 1 2 2 2 2 2 1 7 70 96 80 35 15 4 9 6 2 1 1 1 1 0 0 0 0 0 0 0 0 0 0 0 0 0 0 0 0 0 0
1 0 1 1 0 1 1 2 3 3 4 0 32 41 95 50 15 6 6 1 0 0 2 1 1 0 0 0 0 0 0 0 0 0 0 0 0 0 0 0 0 0 0
0 0 0 0 1 1 3 3 3 2 3 2 5 20 82 19 10 1 0 0 0 0 1 1 1 1 0 0 0 0 0 1 0 0 0 0 0 0 0 0 0 0 0
0 0 0 0 0 1 2 3 2 2 3 3 1 11 91 26 41 17 0 0 0 0 0 1 0 1 1 0 0 0 1 0 0 0 0 0 0 0 0 0 0 0 0
0 0 0 0 0 1 4 2 1 2 3 1 1 88 81 50 22 33 1 2 1 0 0 0 0 0 0 0 0 0 0 0 0 0 0 0 0 0 0 0 0 0 0
0 0 0 0 0 1 3 2 1 2 2 2 1 76 97 50 23 21 3 2 1 2 0 0 0 0 0 0 0 0 0 0 0 0 0 0 0 0 0 0 0 0 0
0 0 0 0 1 1 0 1 1 2 3 1 0 55 31 27 0 0 2 2 0 2 1 0 0 0 0 0 0 0 0 0 0 0 0 0 0 0 0 0 0 0 0
CIN
-33 -10 -1 -2 -1 -3 -2 -5 -49 -17 -0 -0 -0 -0 -1 -1 -1 -1 -1 -0 -0 -0 -57 -44 -49 -27 -0 -4 -4 -8 -1 -0 -12 -15 -16 -45 -8 -0 -0 -0 -0 -0 -0
-5 -1 -6 -0 -0 -1 -0 -0 -57 -68 -0 -0 -0 -1 -1 -0 -1 -0 -0 -0 -0 -21 -8 -80 -0 -10 -1 -8 -36 -17 -11 -4 -15 -35 -40 -8 -0 -0 -0 -1 -0 -0 -1
-1 -0 -11 -5 -0 -0 -0 -2 -27 -0 -16 -1 -1 -1 -2 -4 -0 -0 -0 -0 -0 -1 -40 -56 -17 -1 -0 -0 -12 -2 -37 -15 -15 -34 -46 -0 -11 -0 -0 -0 -0 -0 -0
-4 -0 -8 -15 -5 -10 -0 -0 -11 -10 -14 -9 -1 -2 -1 -1 -2 -0 -0 -1 -0 -0 -66 -47 -2 -1 -1 -1 -1 -2 -3 -6 -0 -19 -0 -1 -8 -0 -1 -0 -0 -0 -0
-0 -0 -10 -2 -16 -6 -5 -0 -9 -44 -4 -42 -1 -1 -1 -0 -1 -0 -1 -1 -8 -0 -14 -14 -3 -13 -5 -2 -0 -0 -0 -0 -0 -30 -0 -0 -2 -0 -0 -1 -1 -1 -0
-0 -0 -0 -2 -23 -0 -23 -15 -1 -6 -2 -6 -1 -1 -1 -0 -1 -2 -1 -0 -0 -0 -14 -49 -0 -5 -7 -0 -1 -0 -0 -0 -2 -31 -0 -0 -0 -0 -0 -2 -2 -0 -0
-0 -0 -0 -0 -1 -16 -36 -19 -5 -0 -5 -1 -3 -1 -0 -0 -1 -2 -1 -1 -0 -0 -0 -0 -6 -0 -0 -0 -0 -8 -0 -1 -33 -35 -0 -0 -0 -1 -0 -0 -0 -0 -0
-0 -0 -0 -11 -0 -10 -13 -7 -0 -5 -18 -1 -0 -1 -0 -0 -0 -0 -1 -1 -1 -0 -0 -0 -0 -0 -1 -1 -0 -0 -2 -0 -15 -31 -0 -0 -0 -1 -1 -1 -0 -0 -0
-0 -0 -0 -0 -0 -10 -11 -13 -6 -11 -26 -6 -1 -1 -0 -0 -0 -1 -3 -0 -0 -0 -0 -0 -0 -0 -0 -0 -2 -0 -0 -2 -0 -5 -26 -0 -0 -0 -0 -0 -0 -0 -0
-0 -0 -0 -0 -0 -2 -12 -8 -7 -1 -14 -55 -0 -3 -1 -0 -1 -1 -1 -0 -0 -0 -0 -0 -0 -0 -0 -2 -3 -2 -25 -9 -3 -2 -1 -1 -0 -0 -0 -0 -0 -1 -0
-0 -0 -0 -0 -0 -0 -0 -4 -13 -10 -4 -12 -30 -0 -0 -0 -0 -0 -0 -0 -1 -0 -0 -0 -0 -1 -0 -0 -20 -9 -23 -3 -37 -3 -0 -0 -10 -1 -0 -0 -0 -0 -0
-0 -0 -0 -0 -0 -0 -0 -0 -3 -6 -0 -3 -23 -14 -1 -0 -0 -0 -0 -0 -0 -0 -0 -0 -0 -15 -5 -9 -28 -34 -32 -24 -10 -8 -1 -0 -0 -0 -0 -1 -4 -0 -0
-0 -0 -0 -0 -0 -0 -0 -0 -2 -2 -3 -5 -3 -10 -3 -0 -0 -0 -0 -0 -0 -0 -0 -1 -0 -0 -0 -0 -17 -27 -40 -30 -27 -19 -11 -5 -3 -6 -6 -0 -0 -2 -1
-0 -0 -0 -0 -0 -0 -0 -0 -0 -1 -0 -0 -0 -9 -2 -18 -0 -3 -0 -0 -0 -0 -0 -0 -0 -0 -0 -0 -0 -0 -32 -47 -40 -19 -21 -7 -3 -5 -10 -10 -2 -1 -1
-0 -0 -0 -0 -0 -0 -0 -0 -0 -3 -1 -0 -0 -3 -7 -8 -6 -0 -0 -0 -0 -0 -0 -0 -0 -0 -0 -0 -0 -0 -0 -0 -0 -39 -26 -18 -15 -11 -8 -6 -8 -15 -5
-0 -0 -0 -0 -0 -0 -0 -0 -0 -0 -0 -0 -0 -0 -0 -0 -15 -69 -0 -0 -0 -0 -0 -0 -0 -0 -0 -0 -0 -0 -0 -0 -0 -0 -0 -0 -0 -0 -20 -16 -10 -7 -24
-0 -0 -0 -0 -0 -0 -0 -0 -0 -0 -0 -0 -2 -2 -0 -0 -33 -73 -90 -13 -4 -1 -1 -1 -0 -0 -0 -0 -0 -0 -0 -0 -0 -0 -0 -0 -0 -0 -0 -0 -0 -0 -0
-0 -0 -0 -0 -0 -0 -0 -0 -0 -0 -9 -0 -0 -0 -0 -8 -4 -80 -86 -107 -79 -0 -0 -0 -0 -0 -0 -0 -0 -0 -0 -0 -0 -0 -0 -0 -0 -0 -0 -0 -0 -0 -0
-0 -0 -0 -0 -0 -0 -0 -0 -0 -0 -0 -0 -0 -0 -3 -2 -4 -45 -96 -104 -73 -0 -0 -0 -0 -0 -0 -0 -0 -0 -0 -0 -0 -0 -0 -0 -0 -0 -0 -0 -0 -0 -0
-0 -0 -0 -0 -0 -0 -0 -0 -0 -0 -0 -1 -0 -0 -1 -2 -3 -3 -69 -99 -0 -2 -0 -0 -0 -0 -0 -0 -0 -0 -0 -0 -0 -0 -0 -0 -0 -0 -0 -0 -0 -0 -0
-0 -0 -0 -0 -0 -0 -0 -0 -0 -0 -0 -0 -0 -2 -0 -8 -7 -8 -0 -0 -0 -0 -0 -0 -0 -0 -0 -0 -0 -0 -0 -0 -0 -0 -0 -0 -0 -0 -0 -0 -0 -0 -0
-0 -0 -0 -0 -0 -0 -0 -0 -0 -0 -0 -0 -0 -1 -1 -23 -10 -8 -0 -0 -2 -0 -0 -0 -0 -0 -0 -0 -0 -0 -0 -0 -0 -0 -0 -0 -0 -0 -0 -0 -0 -0 -0
-0 -0 -0 -0 -0 -0 -0 -0 -0 -0 -0 -0 -0 -0 -2 -41 -15 -11 -0 -0 -0 -0 -0 -0 -0 -0 -0 -0 -0 -0 -0 -0 -0 -0 -0 -0 -0 -0 -0 -0 -0 -0 -0
-0 -0 -0 -0 -0 -0 -0 -0 -0 -0 -0 -0 -0 -7 -5 -8 -13 -8 -5 -20 -0 -0 -0 -0 -0 -0 -0 -0 -0 -0 -0 -0 -0 -0 -0 -0 -0 -0 -0 -0 -0 -0 -0
-0 -0 -0 -0 -0 -0 -0 -0 -0 -0 -0 -0 -0 -15 -2 -6 -25 -26 -27 -6 -0 -0 -0 -0 -0 -0 -0 -0 -0 -0 -0 -0 -0 -0 -0 -0 -0 -0 -0 -0 -0 -0 -0
-0 -0 -0 -0 -0 -0 -0 -0 -0 -0 -0 -0 -0 -32 -27 -40 -0 -0 -22 -0 -0 -0 -0 -0 -0 -0 -0 -0 -0 -0 -0 -0 -0 -0 -0 -0 -0 -0 -0 -0 -0 -0 -0
Wind_Speed
23 32 25 19 22 20 20 19 18 18 18 16 15 15 16 17 17 17 17 18 21 26 18 9 6 3 2 1 1 4 3 2 4 5 7 9 10 11 10 10 11 11 12
30 24 22 20 22 20 20 21 20 20 19 17 16 17 16 17 19 18 17 16 19 22 13 9 7 5 3 2 1 1 2 3 4 6 7 10 9 10 10 10 10 10 11
30 29 25 25 22 21 20 19 19 21 20 20 19 19 18 17 19 18 17 16 15 18 13 10 8 6 5 4 2 1 2 4 5 6 8 8 9 9 9 8 9 10 10
36 30 23 26 25 23 22 20 20 22 23 21 21 19 19 18 19 19 17 16 14 14 12 10 9 8 8 5 6 7 5 5 7 7 7 9 9 9 8 8 9 9 10
36 37 28 28 22 27 26 22 25 26 27 23 23 21 21 20 19 19 19 16 13 11 11 10 11 11 10 12 14 13 10 8 8 7 9 10 10 8 8 8 8 9 9
37 37 36 27 21 23 23 22 27 27 27 24 24 24 23 23 22 21 20 19 17 15 15 13 14 16 17 17 17 17 11 8 9 9 10 9 7 8 8 8 8 9 10
39 38 37 36 28 26 26 26 27 26 32 28 24 24 25 26 26 23 22 20 20 18 17 18 19 20 21 22 23 22 16 12 9 9 9 9 7 7 8 8 9 10 10
39 39 39 37 33 32 28 28 27 28 30 26 26 25 28 27 29 28 25 22 21 19 19 19 19 21 24 24 23 22 18 13 10 9 9 7 7 8 9 10 10 10 11
41 40 40 42 37 34 33 30 29 28 29 30 28 26 29 32 24 27 28 25 23 21 22 21 21 23 25 24 20 19 16 14 12 11 11 9 8 8 9 10 11 12 12
42 42 41 40 43 39 37 36 34 32 30 30 30 31 29 27 26 26 27 26 25 23 23 22 21 21 21 21 19 17 13 11 13 16 13 12 12 12 11 11 12 13 13
43 43 42 42 41 40 39 38 37 37 35 34 33 31 31 29 28 27 27 24 26 26 25 24 22 21 21 20 20 18 14 14 15 15 15 14 13 13 14 14 13 13 14
43 43 43 44 44 42 41 40 40 39 38 37 35 34 34 32 30 29 29 25 26 26 25 24 23 22 21 20 20 18 18 18 18 18 19 19 16 14 14 14 15 15 14
45 45 45 45 46 45 44 42 41 41 40 39 38 37 35 35 33 31 28 25 26 24 26 25 23 22 21 21 20 20 20 21 21 21 22 19 18 17 16 16 16 16 16
46 46 46 46 47 48 47 46 44 42 40 40 39 39 37 35 34 32 29 26 28 27 26 26 25 23 22 21 20 19 21 23 23 22 23 23 23 22 20 18 18 17 16
46 46 47 48 48 48 49 47 48 46 44 42 41 40 40 37 35 34 33 30 29 30 30 25 25 25 24 23 23 23 24 23 25 26 25 25 26 26 24 22 21 20 20
46 47 48 48 49 49 49 49 50 49 47 45 44 42 41 39 36 35 35 34 32 32 32 26 25 23 22 24 20 22 22 29 26 25 26 25 27 28 28 25 24 23 22
45 47 47 48 50 50 49 50 51 51 51 48 45 44 45 41 38 36 35 34 35 34 36 29 27 24 25 27 21 17 22 16 26 28 29 23 22 27 28 27 27 26 28
43 46 46 48 49 50 50 51 53 53 52 50 48 46 47 44 42 38 36 36 35 34 33 35 29 26 24 21 20 18 18 19 20 18 18 21 17 16 21 29 32 29 27
42 43 46 48 49 49 51 51 52 54 55 52 49 47 48 45 45 42 38 37 36 34 34 33 32 29 27 22 23 22 22 21 21 21 22 23 22 19 19 20 24 25 26
41 41 43 45 47 48 49 51 50 54 57 53 51 48 47 48 45 43 41 38 36 35 33 32 31 29 28 26 26 26 26 23 23 22 22 23 20 19 20 23 26 28 29
39 40 40 42 45 47 46 44 48 51 53 56 53 51 49 47 45 42 41 38 35 35 34 33 33 31 30 28 27 25 25 23 24 22 23 24 24 21 24 28 28 27 27
38 38 39 40 42 44 45 44 49 52 56 57 57 53 50 46 46 42 41 38 36 35 35 33 32 32 31 28 25 24 25 25 29 24 26 28 24 25 26 27 28 29 31
37 37 37 38 39 40 42 43 44 48 53 56 57 54 51 47 44 41 39 37 36 34 32 31 31 30 29 27 25 26 25 27 27 24 22 26 24 28 28 29 29 30 30
35 35 35 35 36 36 38 40 42 44 47 53 55 53 54 47 43 40 39 36 35 34 32 30 29 29 26 24 24 25 26 26 27 25 24 31 28 32 30 29 30 33 33
34 34 33 33 32 33 35 38 38 40 43 47 51 53 52 47 45 38 38 36 35 33 30 28 26 25 24 23 23 23 25 25 29 27 25 30 29 32 31 32 32 31 33
31 31 31 31 31 30 30 32 33 35 38 41 44 49 48 48 44 42 40 37 36 32 27 25 24 23 23 23 22 23 23 27 27 29 26 28 30 29 33 30 29 28 30
Wind_Direction
258 256 255 255 254 256 257 259 262 265 269 270 270 270 266 267 267 270 272 271 264 253 253 235 235 240 252 168 273 338 69 56 12 356 355 356 358 5 14 19 25 28 25
265 254 253 253 253 254 258 258 259 261 264 265 266 267 269 268 266 269 271 275 272 259 245 218 214 222 229 207 212 325 3 358 348 334 338 345 349 357 1 9 17 21 21
266 258 254 251 251 252 253 256 257 261 262 262 264 265 267 268 267 269 270 273 280 264 241 194 205 217 230 235 252 176 298 313 316 320 323 332 335 341 351 3 10 12 16
276 264 246 247 247 250 253 253 255 257 258 260 260 262 263 266 267 269 269 270 280 270 251 229 224 235 240 248 272 286 291 294 301 299 321 320 319 325 335 346 353 2 5
279 275 269 267 247 250 251 254 254 253 255 257 258 259 261 263 266 269 266 267 267 263 263 254 249 249 259 270 276 281 285 297 289 287 309 314 305 310 321 331 341 350 355
277 277 270 266 258 254 254 245 250 251 253 256 256 257 259 261 264 267 266 266 264 262 258 256 259 263 267 274 276 281 280 291 281 284 302 308 303 304 312 321 329 335 340
275 274 274 263 260 256 255 248 249 247 248 251 254 257 260 262 262 265 266 266 263 260 260 262 268 268 271 273 276 278 276 272 268 276 295 306 300 298 304 312 317 323 328
275 270 268 271 259 258 252 246 244 247 248 245 249 255 259 261 261 260 263 264 264 261 261 262 268 270 272 276 276 277 274 262 254 266 283 298 300 297 299 304 309 314 318
272 270 268 265 265 253 251 247 246 243 245 246 246 254 257 259 260 262 259 261 262 262 262 265 269 271 273 274 277 277 273 256 258 264 278 284 290 294 297 299 302 305 309
271 268 267 267 264 257 251 248 246 246 245 245 246 249 259 262 256 263 261 259 260 261 262 266 269 271 273 273 272 276 265 255 262 275 271 279 283 287 290 294 299 300 303
272 268 266 265 264 264 252 250 246 245 246 247 246 247 251 257 258 262 264 259 260 261 263 265 267 268 272 273 272 271 261 263 268 267 271 274 278 281 287 291 295 298 299
271 268 267 264 262 261 261 251 248 246 246 247 248 247 246 249 253 258 264 260 259 260 262 264 264 267 269 274 270 268 266 268 266 269 274 278 275 276 280 287 291 295 298
270 268 267 265 261 260 259 259 250 247 245 245 246 247 249 249 254 254 260 264 262 263 265 263 262 264 267 271 275 268 268 270 271 272 273 275 278 276 277 280 286 289 292
270 269 267 265 263 259 258 256 256 248 246 245 244 246 249 250 250 251 251 257 263 264 265 267 262 262 263 267 273 275 274 272 273 273 273 275 279 283 280 280 283 287 287
271 269 267 265 263 260 257 256 253 250 247 246 246 246 248 249 249 250 250 253 256 261 262 266 269 262 263 265 266 271 275 276 275 275 274 275 278 280 283 283 283 286 286
273 270 267 264 263 261 258 255 253 253 247 247 246 247 247 248 249 249 251 252 254 258 264 266 265 275 264 268 265 267 270 274 276 275 271 271 274 277 280 284 286 285 285
276 271 268 265 262 261 259 255 252 251 247 246 247 246 246 246 247 247 249 251 253 256 261 268 270 268 272 271 268 261 265 257 272 275 274 276 270 274 277 281 284 286 287
279 273 269 264 263 260 259 255 251 250 252 245 245 246 247 245 245 245 246 249 252 255 257 261 265 268 267 268 270 266 267 269 272 273 268 273 268 256 275 281 283 285 287
284 278 269 264 262 260 258 256 252 251 250 248 247 246 245 244 243 243 245 249 252 254 256 261 262 266 267 265 266 271 273 275 276 276 278 277 278 275 274 277 283 284 285
286 282 274 266 262 261 260 256 252 253 248 249 247 246 244 241 241 241 244 247 251 252 254 256 260 261 263 264 263 267 271 276 277 280 280 284 286 280 276 282 285 287 287
287 283 278 270 264 260 258 257 253 252 249 248 248 247 244 241 240 241 242 244 247 250 250 252 257 260 261 261 259 264 266 272 276 280 285 287 288 289 289 289 289 289 287
286 282 277 273 267 261 259 261 256 255 250 248 248 246 244 241 239 237 240 243 244 243 248 250 254 255 256 254 256 257 264 271 278 279 282 287 289 289 293 293 293 292 292
284 285 276 274 269 265 259 260 260 256 251 247 245 243 243 239 237 236 237 239 239 242 244 247 249 250 254 253 256 259 263 271 276 284 284 288 291 292 295 295 295 296 297
280 279 274 273 272 267 264 265 266 258 253 247 245 242 239 238 231 235 235 237 238 240 243 244 249 252 253 254 256 261 268 273 279 283 286 288 293 294 297 297 296 297 298
289 286 277 274 271 269 265 264 265 258 257 248 246 242 237 234 232 229 231 233 238 241 241 240 247 249 254 254 260 265 268 272 276 280 286 290 294 297 298 299 300 300 301
277 282 279 269 269 276 277 274 272 262 257 250 246 239 231 228 229 227 232 229 235 234 231 238 242 246 253 255 257 264 269 272 278 283 288 290 294 298 300 302 303 306 306